Location: Truman State University Observatory
(40.1787°N, 92.6006°W)
Time: 16:10:25
(UTC-06:00)

OTV 5 (USA 277) - Visible Passes

Search period start: 24 November 2017 00:00
Search period end: 04 December 2017 00:00
Orbit: 404 x 417 km, 43.0° (Epoch: 07 September)

Date Brightness Start Highest point End Pass type
(mag) Time Alt. Az. Time Alt. Az. Time Alt. Az.
30 Nov ? 18:31:50 10° SSW 18:33:31 18° SSE 18:33:31 18° SSE visible
01 Dec ? 17:41:47 10° S 17:43:28 13° SE 17:45:03 10° ESE visible
01 Dec ? 19:16:59 10° WSW 19:17:49 16° WSW 19:17:49 16° WSW visible
02 Dec ? 18:26:05 10° SW 18:29:16 44° SSE 18:29:16 44° SSE visible
03 Dec ? 17:35:21 10° SSW 17:38:20 30° SSE 17:40:41 14° E visible
03 Dec ? 19:12:08 10° W 19:13:27 22° W 19:13:27 22° W visible
